User: anonymous   Login
Location: Unspecified
(0.0000°N, 0.0000°E)
Time: 20:24:13
(UTC+00:00)
Language:

STARLINK-4284 - Orbit

View from above orbital plane
View from above orbital plane
View from above satellite
View from above satellite

Ground track
Ground track

The orbit is defined by the following mean orbital elements,

1 53023U          26145.30062860 +.00000000 +00000-0 +23705-4 0 00000
2 53023  53.2128 100.1901 0001523  71.6369 288.4789 15.08832986    07
Epoch (UTC): 25 May 2026 07:12:54
Eccentricity: 0.0001523
inclination: 53.2128°
perigee height: 539 km
apogee height: 541 km
right ascension of ascending node: 100.1901°
argument of perigee: 71.6369°
revolutions per day: 15.08832986
mean anomaly at epoch: 288.4789°

The dashed part of the orbit path shows where the satellite is in the earth's shadow,  

DLR